EW5806 Weather Reports


Display with metric or nautical units.
time (UTC)temp
F
wind
direction
speed
MPH
gust
MPH
rain 1hr
in
rain 24hr
in
rain mn
in
humidity
%
barometer
mb
20260507032610 62 135 3.0 5.0 0.00 0.00 0.00 78 1009.4
20260507031554 62 158 4.0 5.0 0.00 0.00 0.00 78 1009.4
20260507030610 62 203 3.0 6.0 0.00 0.00 0.00 78 1009.4
20260507024613 62 158 3.0 4.0 0.00 0.00 0.00 77 1009.4
20260507023552 62 180 4.0 6.0 0.00 0.00 0.00 76 1009.0
20260507022610 63 248 4.0 6.0 0.00 0.00 0.00 75 1009.2
20260507021553 63 180 4.0 7.0 0.00 0.00 0.00 74 1009.2
20260507020610 63 158 4.0 5.0 0.00 0.00 0.00 73 1009.4
20260507015553 63 225 2.0 2.0 0.00 0.00 0.00 73 1009.5
20260507013553 63 248 2.0 4.0 0.00 0.00 0.00 73 1009.9
20260507012611 64 270 2.0 2.0 0.00 0.00 0.00 73 1009.8
20260507010610 64 203 3.0 5.0 0.00 0.00 0.00 74 1010.1
20260507004610 64 225 3.0 5.0 0.00 0.00 0.00 79 1010.1
20260507002610 64 225 2.0 4.0 0.00 0.00 0.00 79 1010.2
20260507000610 64 180 0.0 2.0 0.00 0.00 0.00 79 1010.1
20260506235554 64 180 1.0 2.0 0.00 0.00 0.00 79 1010.2
20260506234610 65 248 1.0 2.0 0.00 0.00 0.00 79 1010.1
20260506233554 65 180 2.0 2.0 0.00 0.00 0.00 79 1010.3
20260506232610 65 203 2.0 2.0 0.00 0.00 0.00 78 1010.3
20260506231554 65 203 2.0 5.0 0.00 0.00 0.00 78 1010.3
20260506230610 65 203 2.0 4.0 0.00 0.00 0.00 79 1010.3
20260506224612 65 203 2.0 4.0 0.00 0.00 0.00 79 1010.6
20260506223554 65 293 2.0 2.0 0.00 0.00 0.00 79 1010.7
20260506222610 65 248 2.0 4.0 0.00 0.00 0.00 79 1010.7
20260506221553 65 225 2.0 4.0 0.00 0.00 0.00 79 1010.7
20260506220612 65 248 2.0 5.0 0.00 0.00 0.00 78 1010.6
20260506213553 65 225 2.0 2.0 0.00 0.00 0.00 78 1010.9
20260506210610 65 270 2.0 6.0 0.00 0.00 0.00 78 1010.6
20260506205554 66 293 4.0 7.0 0.00 0.00 0.00 79 1010.5
20260506204611 66 68 2.0 5.0 0.00 0.00 0.00 78 1010.4
20260506203555 66 203 2.0 4.0 0.00 0.00 0.00 79 1010.3
20260506202611 66 68 3.0 6.0 0.00 0.00 0.00 79 1010.3
20260506200610 66 135 2.0 4.0 0.00 0.00 0.00 78 1010.5
20260506195554 66 248 1.0 4.0 0.00 0.00 0.00 78 1010.3
20260506194610 66 158 2.0 4.0 0.00 0.00 0.00 78 1010.1
20260506193554 66 23 2.0 4.0 0.00 0.00 0.00 78 1009.9
20260506192610 66 225 2.0 5.0 0.00 0.00 0.00 78 1009.8
20260506191553 66 90 2.0 4.0 0.00 0.00 0.00 79 1009.9
20260506190610 66 248 1.0 2.0 0.00 0.00 0.00 78 1009.8
20260506185555 66 315 2.0 5.0 0.00 0.00 0.00 78 1009.9
20260506184611 66 315 3.0 7.0 0.00 0.00 0.00 79 1009.6
20260506183555 66 270 2.0 4.0 0.00 0.00 0.00 78 1009.4
20260506181556 67 315 2.0 4.0 0.00 0.00 0.00 80 1009.4
20260506175554 66 293 4.0 5.0 0.00 0.00 0.00 80 1009.3
20260506174612 67 270 4.0 6.0 0.00 0.00 0.00 79 1009.3
20260506173554 67 293 4.0 6.0 0.00 0.00 0.00 78 1009.3
20260506172611 68 293 4.0 6.0 0.00 0.00 0.00 78 1009.1
20260506171555 67 293 4.0 6.0 0.00 0.00 0.00 79 1009.2
20260506170658 67 293 5.0 6.0 0.00 0.00 0.00 79 1009.2
20260506165553 67 293 5.0 8.0 0.00 0.00 0.00 79 1009.3
20260506164610 67 293 5.0 8.0 0.00 0.00 0.00 79 1009.2
20260506163722 67 315 5.0 7.0 0.00 0.00 0.00 79 1009.2
20260506112611 71 293 5.0 7.0 0.00 0.00 0.00 67 1010.0
20260506111553 70 315 5.0 7.0 0.00 0.00 0.00 64 1010.0
20260506110613 71 135 4.0 7.0 0.00 0.00 0.00 65 1010.1
20260506105554 70 315 5.0 8.0 0.00 0.00 0.00 63 1010.1
20260506103553 70 315 5.0 7.0 0.00 0.00 0.00 63 1010.2
20260506102611 70 270 5.0 7.0 0.00 0.00 0.00 61 1010.3
20260506101553 70 338 5.0 8.0 0.00 0.00 0.00 60 1010.3
20260506100611 70 338 5.0 7.0 0.00 0.00 0.00 60 1010.4
20260506095634 71 23 4.0 7.0 0.00 0.00 0.00 57 1010.3
20260506094611 71 293 8.0 16.0 0.00 0.00 0.00 54 1010.4
20260506093554 72 248 5.0 7.0 0.00 0.00 0.00 51 1010.4
20260506092611 72 90 2.0 4.0 0.00 0.00 0.00 53 1010.4
20260506091555 70 158 4.0 6.0 0.00 0.00 0.00 67 1010.3
20260506090611 70 68 5.0 8.0 0.00 0.00 0.00 68 1010.3
20260506085555 70 293 5.0 7.0 0.00 0.00 0.00 69 1010.1
20260506084611 70 90 5.0 7.0 0.00 0.00 0.00 67 1010.2
20260506083553 70 293 3.0 5.0 0.00 0.00 0.00 61 1010.1
20260506082611 69 315 3.0 5.0 0.00 0.00 0.00 56 1010.1
20260506081554 70 293 4.0 7.0 0.00 0.00 0.00 50 1010.0
20260506080611 71 293 4.0 7.0 0.00 0.00 0.00 45 1009.9
20260506071555 67 135 1.0 2.0 0.00 0.00 0.00 47 1009.6
20260506070611 66 135 2.0 4.0 0.00 0.00 0.00 48 1009.8
20260506061554 62 135 2.0 4.0 0.00 0.00 0.00 53 1009.8
20260506060611 62 158 3.0 5.0 0.00 0.00 0.00 53 1009.7
20260506050612 60 225 2.0 4.0 0.00 0.00 0.00 57 1009.0
20260506044613 60 180 2.0 4.0 0.00 0.00 0.00 56 1008.8
20260506043553 61 113 3.0 5.0 0.00 0.00 0.00 55 1008.7
20260506041552 61 225 7.0 9.0 0.00 0.00 0.00 55 1008.4
20260506040611 61 158 6.0 8.0 0.00 0.00 0.00 56 1008.4
20260506034612 62 135 6.0 8.0 0.00 0.00 0.00 56 1008.4
20260506033552 62 203 6.0 9.0 0.00 0.00 0.00 56 1008.5